Météo par heure à Juegangzhen

Ce jour, 20 Juin, Dimanche

Heure Température Précipitation Vent Pression Humidité
00:00 +21°C° 0 mm 3 m/s 751 mmHg 87%
01:00 +21°C° 0 mm 3 m/s 751 mmHg 83%
02:00 +21°C° 0 mm 3 m/s 751 mmHg 81%
03:00 +21°C° 0 mm 2 m/s 751 mmHg 79%
04:00 +21°C° 0 mm 2 m/s 751 mmHg 78%
05:00 +22°C° 0 mm 1 m/s 751 mmHg 76%
06:00 +23°C° 0 mm 1 m/s 751 mmHg 73%
07:00 +24°C° 0 mm 1 m/s 752 mmHg 69%
08:00 +25°C° 0 mm 1 m/s 752 mmHg 65%
09:00 +27°C° 0 mm 1 m/s 752 mmHg 60%
10:00 +28°C° 0 mm 1 m/s 752 mmHg 56%
11:00 +29°C° 0 mm 1 m/s 752 mmHg 51%
12:00 +30°C° 0 mm 2 m/s 752 mmHg 49%
13:00 +30°C° 0 mm 2 m/s 751 mmHg 46%
14:00 +31°C° 0 mm 3 m/s 751 mmHg 44%
15:00 +30°C° 0 mm 3 m/s 751 mmHg 48%
16:00 +29°C° 0 mm 3 m/s 751 mmHg 53%
17:00 +29°C° 0 mm 3 m/s 751 mmHg 57%
18:00 +27°C° 0 mm 3 m/s 751 mmHg 62%
19:00 +26°C° 0 mm 3 m/s 752 mmHg 67%
20:00 +24°C° 0 mm 3 m/s 752 mmHg 73%
21:00 +24°C° 0 mm 3 m/s 752 mmHg 74%
22:00 +22°C° 0 mm 3 m/s 752 mmHg 75%
23:00 +22°C° 0 mm 3 m/s 752 mmHg 76%

Demain, 21 Juin, Lundi

Heure Température Précipitation Vent Pression Humidité
00:00 +21°C° 0 mm 3 m/s 752 mmHg 78%
01:00 +21°C° 0 mm 3 m/s 752 mmHg 79%
02:00 +21°C° 0 mm 2 m/s 752 mmHg 80%
03:00 +20°C° 0 mm 2 m/s 752 mmHg 81%
04:00 +20°C° 0 mm 2 m/s 752 mmHg 81%
05:00 +20°C° 0 mm 2 m/s 752 mmHg 82%
06:00 +23°C° 0 mm 1 m/s 753 mmHg 75%
07:00 +24°C° 0 mm 1 m/s 753 mmHg 67%
08:00 +24°C° 0 mm 0 m/s 753 mmHg 60%
09:00 +28°C° 0 mm 1 m/s 753 mmHg 54%
10:00 +29°C° 0 mm 2 m/s 753 mmHg 47%
11:00 +30°C° 0 mm 2 m/s 753 mmHg 41%
12:00 +31°C° 0 mm 3 m/s 753 mmHg 41%
13:00 +31°C° 0 mm 3 m/s 753 mmHg 41%
14:00 +31°C° 0 mm 3 m/s 752 mmHg 41%
15:00 +32°C° 0 mm 4 m/s 752 mmHg 43%
16:00 +30°C° 0 mm 4 m/s 752 mmHg 45%
17:00 +30°C° 0 mm 4 m/s 752 mmHg 46%
18:00 +28°C° 0 mm 4 m/s 753 mmHg 52%
19:00 +27°C° 0 mm 4 m/s 753 mmHg 59%
20:00 +25°C° 0 mm 3 m/s 753 mmHg 65%
21:00 +24°C° 0 mm 3 m/s 753 mmHg 66%
22:00 +24°C° 0 mm 3 m/s 754 mmHg 66%
23:00 +22°C° 0 mm 3 m/s 754 mmHg 67%

Après-demain, 22 Juin, Mardi

Heure Température Précipitation Vent Pression Humidité
00:00 +22°C° 0 mm 3 m/s 754 mmHg 68%
01:00 +23°C° 0 mm 2 m/s 754 mmHg 69%
02:00 +23°C° 0 mm 2 m/s 754 mmHg 70%
03:00 +23°C° 0 mm 1 m/s 754 mmHg 70%
04:00 +23°C° 0 mm 1 m/s 754 mmHg 70%
05:00 +23°C° 0 mm 1 m/s 754 mmHg 70%
06:00 +24°C° 0 mm 1 m/s 754 mmHg 64%
07:00 +26°C° 0 mm 1 m/s 755 mmHg 58%
08:00 +28°C° 0 mm 1 m/s 755 mmHg 52%
09:00 +29°C° 0 mm 2 m/s 755 mmHg 49%
10:00 +30°C° 0 mm 2 m/s 755 mmHg 45%
11:00 +31°C° 0 mm 3 m/s 755 mmHg 41%
12:00 +31°C° 0 mm 3 m/s 755 mmHg 41%
13:00 +33°C° 0 mm 3 m/s 755 mmHg 41%
14:00 +33°C° 0 mm 3 m/s 755 mmHg 41%
15:00 +32°C° 0 mm 4 m/s 755 mmHg 44%
16:00 +30°C° 0 mm 4 m/s 755 mmHg 47%
17:00 +29°C° 0 mm 4 m/s 755 mmHg 50%
18:00 +28°C° 0 mm 4 m/s 755 mmHg 56%
19:00 +26°C° 0 mm 3 m/s 755 mmHg 62%
20:00 +25°C° 0 mm 3 m/s 755 mmHg 69%
21:00 +24°C° 0 mm 3 m/s 755 mmHg 70%
22:00 +24°C° 0 mm 3 m/s 756 mmHg 71%
23:00 +22°C° 0 mm 3 m/s 756 mmHg 72%

23 Juin, Mercredi

Heure Température Précipitation Vent Pression Humidité
00:00 +22°C° 0 mm 3 m/s 756 mmHg 73%
01:00 +22°C° 0 mm 3 m/s 755 mmHg 74%
02:00 +22°C° 0 mm 3 m/s 755 mmHg 74%
03:00 +23°C° 0 mm 2 m/s 755 mmHg 75%
04:00 +21°C° 0 mm 2 m/s 755 mmHg 76%
05:00 +22°C° 0 mm 1 m/s 756 mmHg 76%
06:00 +24°C° 0 mm 1 m/s 756 mmHg 70%
07:00 +26°C° 0 mm 1 m/s 756 mmHg 63%
08:00 +28°C° 0 mm 1 m/s 756 mmHg 56%
09:00 +29°C° 0 mm 2 m/s 756 mmHg 52%
10:00 +30°C° 0 mm 2 m/s 756 mmHg 47%
11:00 +31°C° 0 mm 3 m/s 756 mmHg 43%
12:00 +31°C° 0 mm 3 m/s 756 mmHg 42%
13:00 +33°C° 0 mm 3 m/s 756 mmHg 42%
14:00 +33°C° 0 mm 4 m/s 755 mmHg 42%
15:00 +32°C° 0 mm 4 m/s 755 mmHg 44%
16:00 +30°C° 0 mm 5 m/s 755 mmHg 46%
17:00 +29°C° 0 mm 5 m/s 755 mmHg 49%
18:00 +28°C° 0 mm 5 m/s 755 mmHg 55%
19:00 +26°C° 0 mm 4 m/s 756 mmHg 61%
20:00 +25°C° 0 mm 4 m/s 756 mmHg 67%
21:00 +25°C° 0 mm 4 m/s 756 mmHg 69%
22:00 +23°C° 0 mm 4 m/s 756 mmHg 71%
23:00 +23°C° 0 mm 4 m/s 756 mmHg 73%

24 Juin, Jeudi

Heure Température Précipitation Vent Pression Humidité
00:00 +23°C° 0 mm 4 m/s 755 mmHg 76%
01:00 +22°C° 0 mm 3 m/s 755 mmHg 79%
02:00 +22°C° 0 mm 3 m/s 755 mmHg 82%
03:00 +23°C° 0 mm 2 m/s 755 mmHg 81%
04:00 +23°C° 0 mm 2 m/s 755 mmHg 81%
05:00 +23°C° 0 mm 1 m/s 755 mmHg 81%
06:00 +25°C° 0 mm 2 m/s 755 mmHg 74%
07:00 +26°C° 0 mm 2 m/s 756 mmHg 67%
08:00 +28°C° 0 mm 3 m/s 756 mmHg 60%
09:00 +28°C° 0 mm 4 m/s 756 mmHg 59%
10:00 +29°C° 0 mm 5 m/s 756 mmHg 58%
11:00 +30°C° 0 mm 7 m/s 756 mmHg 57%
12:00 +30°C° 0 mm 7 m/s 756 mmHg 57%
13:00 +30°C° 0 mm 6 m/s 755 mmHg 57%
14:00 +30°C° 0 mm 6 m/s 755 mmHg 57%
15:00 +30°C° 0 mm 6 m/s 755 mmHg 58%
16:00 +29°C° 0 mm 6 m/s 754 mmHg 59%
17:00 +29°C° 0 mm 5 m/s 754 mmHg 61%
18:00 +28°C° 0 mm 5 m/s 754 mmHg 67%
19:00 +26°C° 0 mm 5 m/s 755 mmHg 73%
20:00 +25°C° 0 mm 4 m/s 755 mmHg 79%
21:00 +25°C° 0 mm 4 m/s 755 mmHg 82%
22:00 +23°C° 0 mm 4 m/s 755 mmHg 84%
23:00 +23°C° 0 mm 4 m/s 755 mmHg 87%

25 Juin, Vendredi

Heure Température Précipitation Vent Pression Humidité
00:00 +23°C° 0 mm 4 m/s 755 mmHg 88%
01:00 +22°C° 0 mm 4 m/s 755 mmHg 90%
02:00 +22°C° 0 mm 4 m/s 754 mmHg 91%
03:00 +22°C° 0 mm 3 m/s 754 mmHg 91%
04:00 +22°C° 0 mm 3 m/s 754 mmHg 92%
05:00 +22°C° 0 mm 3 m/s 754 mmHg 92%
06:00 +24°C° 0 mm 3 m/s 755 mmHg 84%
07:00 +26°C° 0 mm 4 m/s 755 mmHg 77%
08:00 +28°C° 0 mm 4 m/s 755 mmHg 69%
09:00 +28°C° 0 mm 4 m/s 755 mmHg 66%
10:00 +29°C° 0 mm 5 m/s 755 mmHg 62%
11:00 +30°C° 0 mm 5 m/s 755 mmHg 59%
12:00 +30°C° 0 mm 5 m/s 755 mmHg 60%
13:00 +30°C° 0 mm 5 m/s 755 mmHg 61%
14:00 +29°C° 0 mm 6 m/s 755 mmHg 62%
15:00 +29°C° 0 mm 6 m/s 755 mmHg 65%
16:00 +28°C° 0 mm 6 m/s 754 mmHg 68%
17:00 +27°C° 0 mm 6 m/s 754 mmHg 70%
18:00 +26°C° 0 mm 5 m/s 755 mmHg 75%
19:00 +25°C° 0 mm 4 m/s 755 mmHg 80%
20:00 +23°C° 0 mm 4 m/s 755 mmHg 84%
21:00 +24°C° 0 mm 3 m/s 755 mmHg 85%
22:00 +24°C° 0 mm 3 m/s 755 mmHg 86%
23:00 +24°C° 0 mm 3 m/s 755 mmHg 87%
Voir plus

Nous avons besoin de votre consentement

Meteoprog et ses fournisseurs de services peuvent stocker et accéder à des données personnelles telles que des cookies, des identifiants d'appareils ou d'autres technologies similaires sur votre appareil et traiter ces données pour personnaliser le contenu et les publicités, ainsi que pour fournir des fonctionnalités de médias sociaux et analyser le trafic.

  • Stocker et/ou accéder à des informations sur votre appareil

    Des cookies, des identifiants d'appareils ou d'autres informations peuvent être stockés ou accessibles sur votre appareil aux fins indiquées ci-dessus.

  • Annonces et contenus personnalisés, mesure des annonces et des contenus, connaissance de l'audience et développement de produits

    Les annonces et le contenu peuvent être personnalisés en fonction d'un profil. D'autres données peuvent être ajoutées pour mieux personnaliser les annonces et le contenu. Les performances des publicités et du contenu peuvent être mesurées. Il est possible d'obtenir des informations sur le public qui a vu les publicités et le contenu. Ces données peuvent être utilisées pour développer ou améliorer l'expérience de l'utilisateur, les systèmes et les logiciels.

En cliquant sur "J'accepte", vous autorisez l'utilisation de cookies, des identifiants d'appareils, des balises web ou d'autres technologies similaires. Vos paramètres peuvent être modifiés dans le navigateur de votre appareil.

Dans certains cas, des intérêts légitimes peuvent être invoqués plutôt qu'un consentement. Vous pouvez en savoir plus à ce sujet dans notre Politique de confidentialité et de cookies.